Regional & State Weather Roundups


614 
ASUS43 KIND 200309
RWRIN 
WEATHER ROUNDUP FOR INDIANA
NATIONAL WEATHER SERVICE INDIANAPOLIS IN
1000 PM EST MON FEB 19 2018
NOTE: "FAIR" INDICATES FEW OR NO CLOUDS BELOW 12,000 FEET WITH NO
SIGNIFICANT WEATHER AND/OR OBSTRUCTIONS TO VISIBILITY.
* - STATION DOES NOT REPORT WEATHER SUCH AS PRECIPITATION OR FOG.
+ - STATION NOT QUALITY CONTROLLED BY THE NATIONAL WEATHER SERVICE.
    USE DATA WITH CAUTION...ESPECIALLY DEWPOINT AND RELATIVE
    HUMIDITY OBSERVATIONS.
INZ001>003-010>013-019-020-200400-
NORTHWEST INDIANA
  
CITY           SKY/WX    TMP DP  RH WIND       PRES   REMARKS
GARY /AIRPORT/ LGT RAIN  59  57  94 S14G28    29.87S                  
LA PORTE +     RAIN      56  55  94 S9        29.89S                  
MICHIGAN CITY+ LGT RAIN  57  57 100 S10G17    29.87S                  
MONTICELLO +   CLOUDY    62  58  88 S12G17    29.91R                  
RENSSELAER +   CLOUDY    61  54  77 S18       29.87F THUNDER          
VALPARAISO     LGT RAIN  61  57  87 S15       29.88F FOG              
$$
LMZ046-743>745-200400-
SOUTHERN LAKE MICHIGAN
  
STATION/POSITION TIME  TEMP    WIND        PRES    WAVE
                       AIR SEA DIR/SP/G            HT
                 (UTC) (F)     (DEG/KT/KT) (MB)    (FT)
BURNS HARBOR     0240   58     190/ 17/ 23 1011.5S
MICHIGAN CITY    0240   58     170/ 15/ 20   N/A
$$
INZ004-005-014>016-021>024-200400-
NORTH CENTRAL INDIANA
  
CITY           SKY/WX    TMP DP  RH WIND       PRES   REMARKS
GOSHEN         LGT RAIN  59  55  87 S15       29.92R                  
LOGANSPORT +   CLOUDY    59  55  88 S13       29.94S                  
PERU/GRISSOM   LGT RAIN  57  57 100 SE8       29.93F                  
ROCHESTER +    LGT RAIN  61  59  94 S9        29.93F                  
SOUTH BEND     CLOUDY    57  54  89 S10       29.91F                  
WARSAW +       CLOUDY    59  55  88 S7        29.92F                  
$$
INZ006>009-017-018-025>027-200400-
NORTHEAST INDIANA
  
CITY           SKY/WX    TMP DP  RH WIND       PRES   REMARKS
AUBURN +       MOCLDY    59  55  88 S12G17    29.96F                  
FORT WAYNE     LGT RAIN  58  56  93 S10       29.97F                  
HUNTINGTON +   CLOUDY    57  56  95 S7        29.96F                  
KENDALLVILLE +   N/A     59  57  92 SW18      29.94S                  
$$
INZ028-029-035-036-043>045-051>053-200400-
WEST CENTRAL INDIANA
  
CITY           SKY/WX    TMP DP  RH WIND       PRES   REMARKS
CRAWFORDSVL +  MOCLDY    60  56  88 S15G21    29.95R                  
GREENCASTLE +  FAIR      63  52  67 S9G18     29.98S                  
LAFAYETTE      CLOUDY    61  58  90 S13G21    29.91F                  
TERRE HAUTE    FAIR      64  55  72 S14       29.96S                  
$$
INZ030>032-037>040-046>048-054>057-064-065-200400-
CENTRAL INDIANA
  
CITY           SKY/WX    TMP DP  RH WIND       PRES   REMARKS
COLUMBUS       PTCLDY    63  48  59 S14       30.03S                  
FISHERS *+       N/A     59  57  94 S6        29.98F                  
FRANKFORT +    CLOUDY    61  58  90 S9        29.96F                  
GREENWOOD *+   FAIR      61 -47   1 S12       30.00F                  
INDIANAPOLIS   MOCLDY    64  53  67 S18       29.98S                  
-EAGLE CREEK   FAIR      61  53  75 S6        29.97F                  
KOKOMO +       LGT RAIN  58  57  97 S10       29.96F                  
MARION +       CLOUDY    56  55  97 CALM      29.98F FOG              
MT COMFORT *+  FAIR      63  57  82 S13       30.00S                  
SHELBYVILLE    FAIR      64  51  62 S15       30.01S                  
ZIONSVILLE +   FAIR      56  55  98 S8        29.98F                  
$$
INZ033-034-041-042-049-050-058-059-200400-
EAST CENTRAL INDIANA
  
CITY           SKY/WX    TMP DP  RH WIND       PRES   REMARKS
MUNCIE         MOCLDY    64  55  72 S13       29.99F                  
RICHMOND +     FAIR      55  54  94 S14       30.06S                  
$$
INZ060-061-067>069-081>083-085>088-200400-
SOUTHWEST INDIANA
  
CITY           SKY/WX    TMP DP  RH WIND       PRES   REMARKS
EVANSVILLE     FAIR      66  56  70 S9        30.03R                  
HUNTINGBURG +  FAIR      66  56  70 S15       30.05R                  
WASHINGTON +   FAIR      64  53  65 S15       30.00F                  
$$
INZ062-063-066-070>080-084-089>092-200400-
SOUTH CENTRAL AND SOUTHEAST INDIANA
  
CITY           SKY/WX    TMP DP  RH WIND       PRES   REMARKS
BATESVILLE +   CLEAR     64  54  68 MISG      30.05S                  
BEDFORD +      MOCLDY    66  52  59 S8        30.03R                  
BLOOMINGTON    CLOUDY    67  54  63 S16       30.00F                  
FRENCH LICK *+ FAIR      64  50  59 S7G16     30.05S                  
MADISON *+     FAIR      64  52  63 S14G20    30.09S                  
NORTH VERNON + FAIR      64  52  63 S13G21    30.06S                  
SEYMOUR +      FAIR      66  54  63 S13       30.04S                  
$$